Preview of NWS' New Version of Forecast
This preview is not operational and should not be used for support decisions.
Latest weather observations around

Philadelphia, Philadelphia International Airport (KPHL)

Using International System of Units (Switch to English Units)
Date/ Time (EDT) Wind (kph) Vis. (km) Weather Sky Cond. Temp (°C) Rel. Humidity Wind Chill (°C) Heat Index (°C) Pressure Precip. (cm)
Air Dwpt 6 hour Altimeter (hPa) Sea level (hPa) 1 hr 3 hr 6 hr
Max Min
Jun 19 13:54 E 11 16.09 Mostly Cloudy SCT026 BKN033 BKN047 BKN150 27 22     74%   29 1008.8 1008.6 0   0
Jun 19 13:17 SSE 9 16.09 Mostly Cloudy SCT023 BKN042 BKN090 BKN150 26 22     77%   28 1009.2   0    
Jun 19 12:54 5 16.09 Mostly Cloudy BKN024 BKN044 BKN090 BKN150 27 21     69%   28 1009.5 1009.3      
Jun 19 11:54 Calm 16.09 Cloudy FEW020 BKN028 OVC035 26 21     74%   28 1009.8 1009.8      
Jun 19 10:54 SSE 8 16.09 Cloudy FEW009 BKN022 OVC028 22 21     91%   23 1010.5 1010.4      
Jun 19 10:50 SSE 9 16.09 Cloudy FEW009 BKN022 OVC028 22 21     94%   23 1010.5        
Jun 19 10:13 SSE 8 16.09 Cloudy FEW009 BKN019 OVC026 22 20     90%   22 1010.8        
Jun 19 09:54 S 8 16.09 Cloudy FEW009 SCT017 OVC023 21 21     97%     1010.8 1010.6      
Jun 19 09:47 S 9 16.09 Cloudy FEW009 SCT017 OVC023 22 21     93%   22 1010.8        
Jun 19 09:08 SE 8 16.09 Cloudy SCT009 BKN017 OVC025 22 21     96%   22 1011.2        
Jun 19 08:54 SE 8 16.09 Cloudy SCT009 BKN023 OVC110 21 21     100%     1011.2 1011      
Jun 19 07:54 E 9 16.09 Cloudy FEW009 BKN028 OVC110 21 21     100%     1010.8 1010.7     0
Jun 19 07:42 E 9 16.09 Cloudy FEW009 BKN028 OVC110 21 21     100%     1010.8        
Jun 19 06:54 Calm 16.09 Mostly Cloudy SCT013 SCT035 BKN110 21 21     100%     1010.8 1010.7      
Jun 19 06:47 Calm 16.09 Mostly Cloudy SCT013 SCT035 BKN110 21 21     100%     1010.8        
Jun 19 06:29 Calm 16.09 Mostly Cloudy FEW008 BKN013 BKN032 BKN140 20 20     100%     1010.8        
Jun 19 06:13 SSE 8 16.09 Mostly Cloudy FEW008 BKN015 BKN042 BKN140 20 20     100%     1010.8        
Jun 19 05:54 Calm 16.09 Mostly Cloudy SCT016 BKN042 BKN075 BKN140 20 20     100%     1010.8 1010.9      
Jun 19 04:54 SSW 5 16.09 Cloudy FEW015 BKN050 BKN090 OVC180 21 21     100%     1011.2 1010.9   0  
Jun 19 03:54 Calm 16.09 Cloudy FEW060 SCT120 OVC240 21 20     96%     1011.2 1011 0    
Jun 19 03:12 WSW 8 16.09 Cloudy BKN110 BKN180 OVC250 21 21     97%     1011.2   0    
Jun 19 02:54 WSW 9 11.27 Light Rain SCT070 BKN085 BKN110 OVC150 21 21     97%     1011.5 1011.3 0    
Jun 19 02:45 W 11 11.27 Light Rain SCT085 BKN110 OVC150 21 21     97%     1011.5   0    
Jun 19 01:54 WSW 11 16.09 Cloudy BKN085 BKN120 OVC170 22 21     93%   22 1011.9 1011.8     0
Jun 19 00:54 Calm 16.09 Cloudy SCT045 BKN080 BKN150 OVC240 21 21     97%     1011.9 1011.9      
Jun 18 23:54 SE 8 16.09 Cloudy FEW012 SCT085 BKN150 OVC220 21 21     100%     1012.2 1012.1      
Jun 18 22:54 ESE 8 16.09 Cloudy SCT080 BKN140 BKN200 OVC260 21 21     97%     1012.5 1012.3   0  
Jun 18 21:54 N 8 16.09 Mostly Cloudy FEW050 SCT090 BKN140 BKN250 22 19     84%   23 1011.9 1011.8 0    
Jun 18 20:54 11 16.09 Mostly Cloudy FEW050 SCT090 BKN140 BKN250 23 20     84%   23 1011.5 1011.4 0    
Jun 18 19:54 WNW 22 16.09 Mostly Cloudy SCT044 BKN075 BKN140 BKN250 26 18     64%   26 1011.2 1011     0
Jun 18 18:54 W 24 16.09 Mostly Cloudy FEW035 BKN060 BKN075 BKN140 BKN250 26 21     72%   27 1010.2 1010.2      
Jun 18 17:54 WSW 28 16.09 Mostly Cloudy FEW025 SCT050 BKN170 BKN240 27 21     71%   28 1009.8 1009.8      
Jun 18 16:54 WSW 30 16.09 Mostly Cloudy FEW025 SCT040 BKN140 BKN250 26 20     69%   27 1009.8 1009.8 0 0  
Jun 18 15:54 SW 18 16.09 Light Rain SCT025 SCT040 BKN140 BKN250 26 22     79%   26 1010.5 1010.4 0    
Jun 18 14:54 SW 18 16.09 Mostly Cloudy SCT023 BKN140 26 21     74%   28 1011.2 1011      
Jun 18 13:54 WSW 15 16.09 Cloudy SCT023 SCT050 OVC130 25 22     82%   26 1011.5 1011.5     0
Jun 18 13:51 SW 15 16.09 Cloudy SCT023 BKN050 OVC130 25 22     83%   26 1011.9        
Jun 18 12:54 SW 13 16.09 Cloudy BKN018 BKN050 OVC130 24 21     84%   25 1012.5 1012.4      
Jun 18 12:50 11 16.09 Cloudy BKN015 BKN050 BKN130 OVC250 24 21     83%   25 1012.5        
Jun 18 12:07 S 13 16.09 Mostly Cloudy SCT014 BKN050 BKN110 BKN250 23 21     87%   24 1013.2        
Jun 18 11:54 S 8 16.09 Cloudy BKN014 BKN050 OVC110 23 21     90%   23 1013.2 1013.1      
Jun 18 11:30 S 8 16.09 Cloudy BKN012 BKN050 OVC110 22 21     93%   23 1013.2        
Jun 18 11:01 SSE 8 14.48 Cloudy BKN010 OVC014 22 22     97%   23 1013.2        
Jun 18 10:54 SSE 5 11.27 Cloudy BKN009 OVC014 22 21     96%   22 1013.2 1013.1   0  
Jun 18 10:31 Calm 11.27 Cloudy BKN007 OVC014 21 21     100%     1013.6        
Jun 18 09:54 E 5 9.66 Fog/Mist BKN007 OVC012 21 21     100%     1013.6 1013.5      
Jun 18 09:41 E 5 9.66 Fog/Mist BKN006 OVC012 21 21     100%     1013.9        
Jun 18 08:54 SE 5 4.02 Fog/Mist BKN005 BKN012 OVC130 20 20     100%     1013.9 1013.9 0    
Jun 18 08:49 SE 8 4.02 Fog/Mist BKN005 BKN012 OVC130 21 21     100%     1013.9   0    
Jun 18 08:45 SE 5 8.05 Fog/Mist BKN005 BKN012 OVC130 20 20     100%     1013.9   0    
Jun 18 08:35 ESE 8 6.44 Light Rain and Fog/Mist BKN005 BKN012 OVC130 20 20     100%     1013.9   0    
Jun 18 07:54 E 9 6.44 Fog/Mist BKN004 BKN012 OVC130 20 20     100%     1014.2 1014 0   0
Jun 18 07:06 SSE 5 6.44 Fog/Mist BKN004 OVC012 19 19     100%     1014.6   0    
Jun 18 06:54 SSE 8 6.44 Light Rain and Fog/Mist SCT004 BKN012 OVC040 20 20     100%     1014.6 1014.4 0    
Jun 18 06:38 ESE 8 6.44 Light Rain and Fog/Mist FEW008 BKN012 OVC040 20 20     100%     1014.2   0    
Jun 18 06:16 SE 5 8.05 Light Rain and Fog/Mist SCT008 OVC011 20 20     100%     1014.2   0    
Jun 18 05:54 SSE 5 9.66 Light Rain and Fog/Mist BKN008 OVC018 19 19     100%     1014.2 1014.2 0    
Jun 18 05:44 SE 8 8.05 Light Rain and Fog/Mist BKN007 OVC018 19 19     100%     1014.2   0    
Jun 18 05:26 ESE 9 6.44 Fog/Mist BKN006 BKN015 OVC022 19 19     100%     1013.9   0    
Jun 18 04:54 Calm 8.05 Fog/Mist SCT006 BKN012 OVC020 19 19     100%     1014.2 1014.1      
Jun 18 04:35 SSE 8 8.05 Fog/Mist SCT007 BKN012 OVC020 19 19     100%     1013.9        
Jun 18 04:04 ESE 5 8.05 Fog/Mist BKN010 OVC050 19 19     100%     1013.9        
Jun 18 03:54 E 8 8.05 Fog/Mist BKN009 OVC040 20 20     100%     1013.9 1013.7      
Jun 18 03:47 SE 5 8.05 Fog/Mist BKN009 OVC040 20 20     100%     1013.9        
Jun 18 03:31 SE 5 6.44 Fog/Mist BKN006 BKN120 OVC190 20 20     100%     1014.2        
Jun 18 03:17 Calm 6.44 Fog/Mist BKN010 OVC120 20 20     100%     1013.9        
Jun 18 02:54 Calm 9.66 Fog/Mist FEW010 SCT120 BKN200 OVC280 20 20     100%     1013.9 1013.8      
Jun 18 01:54 Calm 9.66 Fog/Mist FEW005 SCT200 OVC280 20 20     100%     1014.6 1014.4     0
Jun 18 01:07 SW 5 9.66 Fog/Mist SCT007 BKN040 OVC120 21 21     100%     1015.2        
Jun 18 00:54 S 5 9.66 Fog/Mist BKN005 OVC042 21 21     100%     1015.6 1015.3      
Jun 17 23:54 Calm 9.66 Fog/Mist BKN005 OVC100 21 21     100%     1015.6 1015.5      
Jun 17 23:32 Calm 9.66 Fog/Mist BKN005 BKN029 OVC180 21 21     100%     1015.6        
Jun 17 23:24 SSE 5 9.66 Fog/Mist BKN008 BKN049 OVC100 21 21     100%     1015.9        
Jun 17 22:54 Calm 12.87 Cloudy FEW033 SCT049 BKN065 OVC200 21 21     100%     1015.9 1015.7 0 0  
Jun 17 21:54 E 9 14.48 Light Rain FEW038 BKN050 BKN090 BKN150 21 21     100%     1015.2 1015.2 0    
Jun 17 21:41 5 11.27 Light Rain SCT038 BKN050 BKN070 OVC130 21 21     100%     1015.2   0    
Jun 17 21:18 SSW 5 4.83 Light Rain and Fog/Mist BKN050 BKN070 OVC100 21 21     100%     1015.2   0    
Jun 17 20:54 ESE 8 8.05 Light Rain and Fog/Mist SCT050 BKN065 OVC080 21 21     100%     1014.9 1014.9 0    
Jun 17 20:49 SE 8 8.05 Light Rain and Fog/Mist SCT050 BKN065 OVC080 21 21     100%     1015.2   0    
Jun 17 19:54 SSE 9 16.09 Light Rain SCT039 BKN048 BKN060 OVC130 21 21     97%     1015.2 1015.2 0   0
Jun 17 18:54 ENE 5 16.09 Cloudy BKN045 BKN070 BKN110 OVC250 23 20     84%   23 1014.6 1014.6      
Jun 17 17:54 N 17 16.09 Mostly Cloudy FEW039 SCT060 BKN095 BKN140 BKN250 23 20     84%   23 1014.6 1014.3 0    
Jun 17 16:54 ENE 5 14.48 Light Rain BKN042 BKN050 BKN065 BKN130 BKN250 23 22     94%   24 1014.6 1014.6 0 0  
Jun 17 15:54 NNE 15 11.27 Light Rain FEW020 BKN037 BKN048 BKN250 22 22     97%   23 1015.2 1015.1 0    
Jun 17 15:45   8.05 Light Rain BKN040 BKN055 BKN070 BKN250 24 20     76%   25 1015.2   0    
Jun 17 14:54 SSW 9 16.09 Mostly Cloudy SCT044 BKN060 BKN140 BKN250 26 18     62%   26 1014.9 1014.9      
Jun 17 13:54 S 15 16.09 Mostly Cloudy SCT046 BKN150 BKN220 27 19     62%   28 1015.2 1015.2      
Jun 17 12:54 WSW 11 16.09 Mostly Cloudy SCT034 BKN046 BKN090 BKN250 26 19     67%   26 1015.6 1015.5      
Jun 17 11:54 S 8 16.09 Mostly Cloudy BKN030 BKN090 BKN190 BKN250 24 19     74%   24 1015.6 1015.3      
Jun 17 10:54 NNE 5 16.09 Mostly Cloudy SCT028 SCT090 BKN180 BKN250 24 19     71%   25 1014.9 1014.9      
Jun 17 09:54 N 9 16.09 Mostly Cloudy FEW025 SCT090 BKN190 BKN250 23 19     79%   23 1014.9 1014.8      
Jun 17 08:54 9 16.09 Mostly Cloudy FEW035 SCT090 BKN170 BKN250 22 19     84%   22 1015.2 1015      
Jun 17 07:54 NW 15 16.09 Mostly Cloudy FEW055 SCT090 SCT170 BKN250 21 19     90%     1014.9 1014.9     0
Jun 17 06:54 NW 8 16.09 Mostly Cloudy FEW055 SCT110 BKN170 BKN250 21 19     93%     1014.2 1014      
Jun 17 05:54 N 5 16.09 Mostly Cloudy SCT055 BKN110 BKN150 BKN250 21 20     96%     1012.5 1012.5 0    
Jun 17 05:45 Calm 16.09 Mostly Cloudy SCT055 BKN110 BKN150 BKN250 20 20     100%     1012.5   0    
Jun 17 04:54 SW 9 12.87 Cloudy BKN120 OVC170 20 20     100%     1012.9 1012.8      
Jun 17 03:54 WSW 8 12.87 Cloudy SCT090 BKN180 OVC250 21 21     100%     1011.9 1011.8      
Jun 17 02:54 WSW 5 12.87 Cloudy SCT090 BKN180 OVC250 21 21     100%     1011.9 1011.6      
Jun 17 02:27 NNW 11 12.87 Clear   21 21     100%     1011.9        
Jun 17 01:54 W 9 16.09 Clear   21 21     100%     1011.5 1011.3      
Jun 17 00:54 SW 8 16.09 Partly Cloudy SCT065 SCT110 SCT280 21 21     97%     1011.2 1011      
Jun 16 23:54 Calm 16.09 Partly Cloudy FEW075 FEW190 SCT280 21 21     97%     1011.2 1010.9      
Jun 16 23:38 SW 5 16.09 Partly Cloudy FEW075 FEW190 SCT280 21 21     97%     1010.8        
Jun 16 22:54 S 8 12.87 Cloudy BKN075 BKN190 OVC280 22 21     93%   22 1011.2 1011.1      
Jun 16 22:29 Calm 12.87 Cloudy BKN075 BKN190 OVC280 21 21     100%     1011.2        
Jun 16 21:54 SSE 8 16.09 Mostly Cloudy FEW040 SCT190 BKN280 21 21     100%     1010.8 1010.7      
Jun 16 20:54 Calm 16.09 Mostly Cloudy SCT060 BKN080 BKN120 21 21     97%     1010.8 1010.6      
Jun 16 19:54 Calm 16.09 Cloudy SCT036 BKN060 BKN085 OVC200 22 21     93%   22 1010.5 1010.5     0
Jun 16 18:54 W 11 16.09 Cloudy SCT036 BKN060 OVC090 22 21     91%   23 1010.8 1010.8 0    
Jun 16 18:46 NW 17 16.09 Cloudy SCT036 BKN060 OVC090 22 21     91%   23 1010.8   0    
Jun 16 18:38   11.27 Light Rain BKN047 BKN060 OVC090 22 21     91%   23 1011.2   0    
Jun 16 18:31   8.05 Light Rain BKN047 BKN060 OVC090 25 20     74%   25 1011.2   0    
Jun 16 18:23 WSW 22 3.22 Rain SCT047 BKN060 OVC090 26 19     65%   26 1010.2   0    
Jun 16 17:54 SW 28 16.09 Cloudy FEW065 BKN100 OVC250 26 18     62%   26 1009.5 1009.5      
Jun 16 16:54 SW 22 16.09 Cloudy FEW065 BKN110 OVC250 27 18     58%   28 1009.8 1009.7      
Jun 16 15:54 SW 28 16.09 Cloudy FEW065 BKN110 OVC250 27 17     56%   27 1010.2 1010      
Jun 16 14:54 SW 26 16.09 Mostly Cloudy FEW065 BKN110 BKN250 27 18     56%   28 1010.5 1010.3      
Jun 16 13:54 SW 24 16.09 Mostly Cloudy FEW065 SCT100 SCT130 BKN250 26 18     60%   26 1011.2 1010.9     0
May 14 16:54 SSW 15 16.09 Partly Cloudy FEW025 SCT230 23 17     68%   23 1014.6 1014.3      
May 14 12:54 5 11.27 Cloudy OVC014 18 14     78%     1016.9 1016.7      
May 13 16:54 SSE 9 16.09 Cloudy FEW007 OVC010 13 12     90%     1019.3 1019.2   0  
May 13 11:54 E 17 14.48 Cloudy OVC009 13 11     89%     1021 1020.9      
May 13 01:54 ENE 15 8.05 Fog/Mist OVC009 14 13     93%     1019.3 1019.1     2
May 12 11:15 9 14.48 Cloudy OVC010 16 13     83%     1019.7        
May 12 09:54 E 9 16.09 Cloudy OVC009 15 13     90%     1019.7 1019.5      
May 12 07:54 ENE 22 9.66 Fog/Mist BKN008 OVC012 13 12     93%     1019.7 1019.6     2
May 12 05:54   4.83 Thunderstorms and Rain and Fog/Mist FEW018 BKN032 OVC046 12 11     93%     1019.3 1019.2 1    
May 12 03:51   6.44 Heavy Rain SCT035 OVC055 14 10     77%     1021   0    
May 12 02:54 NNE 15 16.09 Cloudy BKN060 OVC100 16 8     60%     1019.3 1019.1      
May 12 00:54 E 8 16.09 Cloudy FEW041 BKN075 OVC095 16 8     60%     1019.7 1019.7 0    
May 11 15:54 5 16.09 Partly Cloudy FEW070 FEW100 SCT260 24 6     31%   24 1016.3 1016.1      
May 11 12:54 WNW 21 16.09 Partly Cloudy SCT055 SCT250 23 9     41%   23 1016.3 1016.1      
Jun 10 21:54 SSW 9 16.09 Mostly Clear FEW070 26 14     50%   26 1017.6 1017.4      
Jun 10 15:54   16.09 Mostly Clear FEW065 31 12     31%   29 1015.6 1015.6      
Jun 10 11:54 SW 15 16.09 Mostly Clear FEW150 FEW280 28 13     40%   27 1016.9 1016.8      
Jun 10 08:54 WSW 9 16.09 Mostly Cloudy FEW060 BKN120 BKN280 23 13     55%   23 1016.9 1016.8      
Jun 08 08:54 9 16.09 Clear   18 11     63%     1016.3 1016.3      
Jun 07 16:54 ENE 8 16.09 Cloudy OVC047 18 9     54%     1016.6 1016.3      
Jun 07 09:37 ENE 15 16.09 Cloudy BKN023 OVC040 14 8     69%     1016.3        
Jun 06 06:32 NE 13 3.22 Rain and Fog/Mist SCT004 BKN012 OVC031 16 15     93%     1005.8   0